Burlington, IA

1:59 PM CDT on September 15, 2019 (GMT -0500)
Burlington Regional

Weather History for KBRL - August, 2019

Change the Weather History Date:

Wednesday, August 21, 2019

  Actual Average Record
Temperature  
Mean Temperature 75 °F 75 °F  
Max Temperature 82 °F 85 °F 101 °F (1947)
Min Temperature 68 °F 65 °F 44 °F (1950)
Degree Days  
Heating Degree Days 0 0  
Month to date heating degree days 0 0  
Since 1 June heating degree days 4 14  
Since 1 July heating degree days 0 1  
Cooling Degree Days 10 10  
Month to date cooling degree days 220 224  
Year to date cooling degree days 947 953  
Since 1 June cooling degree days 873 850  
Growing Degree Days 24 (Base 50)    
Moisture  
Dew Point 69 °F    
Average Humidity 84    
Maximum Humidity 100    
Minimum Humidity 67    
Precipitation  
Precipitation 0.01 in 0.14 in 0.71 in (2017)
Month to date precipitation 1.83 2.85  
Year to date precipitation 30.06 25.83  
Sea Level Pressure  
Sea Level Pressure 29.99 in    
Wind  
Wind Speed 5 mph (WNW)    
Max Wind Speed 15 mph    
Max Gust Speed 20 mph    
Visibility 6 miles    
Events Fog , Rain , Thunderstorm    
T = Trace of Precipitation, MM = Missing Value Source: NWS Daily Summary

Daily Weather History Graph

Daily Weather History Graph

Search for Another Location

Airport or City:

Astronomy

Aug. 21, 2019 Rise Set
Actual Time 6:20 AM CDT 7:54 PM CDT
Civil Twilight 5:51 AM CDT 8:23 PM CDT
Nautical Twilight 5:16 AM CDT 8:57 PM CDT
Astronomical Twilight 4:39 AM CDT 9:34 PM CDT
Moon 11:09 PM CDT (8/21) 11:58 AM CDT (8/21)
Length of Visible Light 14h 31m
Length of Day
13h 33m
Waning Gibbous, 69% of the Moon is Illuminated
Aug 21
Waning Gibbous
Aug 23
Last Quarter
Aug 30
New
Sep 5
First Quarter
Sep 13
Full

Hourly Weather History & Observations

Time (CDT) Temp. Heat Index Dew Point Humidity Pressure Visibility Wind Dir Wind Speed Gust Speed Precip Events Conditions
12:53 AM 71.1 °F - 69.1 °F 93% 29.99 in 10.0 mi Calm Calm - N/A   Clear
1:53 AM 70.0 °F - 68.0 °F 93% 29.97 in 4.0 mi Calm Calm - N/A   Clear
2:53 AM 70.0 °F - 68.0 °F 93% 29.95 in 8.0 mi North 4.6 mph - N/A   Clear
3:53 AM 70.0 °F - 68.0 °F 93% 29.91 in 9.0 mi Calm Calm - N/A   Clear
4:39 AM 69.1 °F - 66.9 °F 93% 29.93 in 4.0 mi Calm Calm - N/A   Scattered Clouds
4:43 AM 69.1 °F - 66.9 °F 93% 29.94 in 1.8 mi Calm Calm - N/A   Mostly Cloudy
4:53 AM 68.0 °F - 66.0 °F 93% 29.93 in 1.0 mi SSW 3.5 mph - N/A   Mist
4:57 AM 68.0 °F - 66.9 °F 96% 29.94 in 0.2 mi SW 3.5 mph - N/A Fog Fog
5:53 AM 68.0 °F - 66.9 °F 96% 29.95 in 0.2 mi WSW 4.6 mph - N/A Fog Fog
6:53 AM 70.0 °F - 69.1 °F 97% 29.99 in 0.2 mi SW 3.5 mph - N/A Fog Fog
7:32 AM 70.0 °F - 69.1 °F 97% 29.99 in 0.5 mi Calm Calm - N/A Fog Fog
7:41 AM 70.0 °F - 69.1 °F 97% 29.99 in 1.0 mi Calm Calm - N/A   Mist
7:53 AM 71.1 °F - 69.1 °F 93% 29.98 in 2.5 mi Calm Calm - N/A   Overcast
8:10 AM 71.1 °F - 70.0 °F 96% 29.99 in 1.0 mi SSW 3.5 mph - N/A   Mist
8:18 AM 71.1 °F - 70.0 °F 96% 29.99 in 0.8 mi Calm Calm - N/A   Mist
8:37 AM 71.1 °F - 70.0 °F 96% 29.99 in 0.2 mi WSW 3.5 mph - N/A Fog Fog
8:53 AM 72.0 °F - 70.0 °F 93% 29.98 in 0.5 mi Calm Calm - N/A Fog Fog
9:04 AM 72.0 °F - 70.0 °F 93% 29.99 in 2.0 mi NW 3.5 mph - N/A   Mostly Cloudy
9:15 AM 72.0 °F - 70.0 °F 93% 30.00 in 3.0 mi Calm Calm - N/A   Scattered Clouds
9:53 AM 72.0 °F - 71.1 °F 97% 30.01 in 5.0 mi WSW 5.8 mph - N/A   Scattered Clouds
10:05 AM 72.0 °F - 70.0 °F 93% 30.05 in 5.0 mi WSW 8.1 mph 18.4 mph N/A   Mostly Cloudy
10:13 AM 72.0 °F - 71.1 °F 97% 30.04 in 8.0 mi WNW 5.8 mph - N/A   Mostly Cloudy
10:34 AM 73.9 °F - 71.1 °F 91% 30.05 in 10.0 mi WNW 4.6 mph - N/A   Mostly Cloudy
10:53 AM 73.9 °F - 70.0 °F 87% 30.05 in 10.0 mi West 9.2 mph 16.1 mph N/A   Overcast
11:41 AM 73.9 °F - 69.1 °F 85% 30.06 in 10.0 mi WNW 8.1 mph 19.6 mph 0.00 in Rain , Thunderstorm Light Rain
11:53 AM 73.9 °F - 68.0 °F 82% 30.05 in 10.0 mi WNW 9.2 mph - 0.00 in Thunderstorm Scattered Clouds
12:03 PM 73.0 °F - 68.0 °F 84% 30.06 in 10.0 mi West 11.5 mph 19.6 mph 0.00 in Rain Light Rain
12:53 PM 73.9 °F - 66.9 °F 79% 30.01 in 10.0 mi North 5.8 mph - 0.01 in   Mostly Cloudy
1:53 PM 75.0 °F - 69.1 °F 82% 29.96 in 10.0 mi North - - N/A   Partly Cloudy
2:53 PM 78.1 °F - 69.1 °F 74% 29.97 in 10.0 mi North 8.1 mph - N/A   Clear
3:53 PM 77.0 °F - 68.0 °F 74% 29.94 in 10.0 mi North 9.2 mph - N/A   Clear
4:53 PM 81.0 °F 83.8 °F 68.0 °F 65% 29.98 in 10.0 mi NNW 4.6 mph - N/A   Clear
5:53 PM 77.0 °F - 68.0 °F 74% 29.97 in 10.0 mi NNW 4.6 mph - N/A   Clear
6:53 PM 75.0 °F - 69.1 °F 82% 29.97 in 10.0 mi West 3.5 mph - N/A   Clear
7:53 PM 73.9 °F - 69.1 °F 85% 29.99 in 10.0 mi WNW 4.6 mph - 0.00 in   Scattered Clouds
8:53 PM 73.0 °F - 69.1 °F 87% 29.98 in 10.0 mi NNW 3.5 mph - N/A   Mostly Cloudy
9:53 PM 73.0 °F - 69.1 °F 87% 29.99 in 10.0 mi NNW 3.5 mph - N/A   Overcast
10:53 PM 73.0 °F - 69.1 °F 87% 30.00 in 10.0 mi North 6.9 mph - N/A   Overcast
11:53 PM 72.0 °F - 68.0 °F 87% 30.00 in 10.0 mi North 5.8 mph - N/A   Overcast